Preview of NWS' New Version of Forecast
This preview is not operational and should not be used for support decisions.

Regional Weather Roundup (RWR)

Issued by National Weather Service (NWS)

                            
000
ASUS44 KJAN 171910
RWRMS 

MISSISSIPPI HOURLY WEATHER ROUNDUP
NATIONAL WEATHER SERVICE JACKSON MS
100 PM CST SUN FEB 17 2019

NOTE: "FAIR: INDICATES FEW OR NO CLOUDS BELOW 12,000 FEET WITH NO
SIGNIFICANT WEATHER AND/OR OBSTRUCTIONS TO VISIBILITY.

MSZ001>002-007>008-010>013-018>021-025>028-034>036-172000-
NORTHWEST MISSISSIPPI
  
CITY           SKY/WX    TMP DP  RH WIND       PRES   REMARKS
BATESVILLE     HVY RAIN  45  43  93 NW7       29.83F                  
CLARKSDALE     CLOUDY    45  45 100 NW13      29.85F                  
CLEVELAND      LGT RAIN  44  44 100 NW12      29.87R                  
GREENWOOD      LGT RAIN  49  46  90 NW9       29.83F FOG              
GREENVILLE     LGT RAIN  44  41  89 NW9       29.87R                  
OLIVE BRANCH   CLOUDY    43  43 100 NW9       29.83S                  
OXFORD         LGT RAIN  45  45 100 NW7       29.83R                  
TUNICA           N/A     43  39  87 NW9       29.87S                  
WINONA         RAIN      48  48 100 NW6       29.81F                  
$$

MSZ003>006-009-014>017-022>024-029>033-037>039-172000-
NORTHEAST MISSISSIPPI
  
CITY           SKY/WX    TMP DP  RH WIND       PRES   REMARKS
ABERDEEN       LGT RAIN  54  54 100 NW9G15    29.80R                  
COLUMBUS AFB   LGT RAIN  63  59  88 W6        29.78R                  
CORINTH        DRIZZLE   48  46  93 N7        29.79F                  
GOLDN TRIANGLE LGT RAIN  63  61  93 S8        29.78S                  
STARKVILLE     CLOUDY    61  59  94 NW3       29.80R                  
TUPELO         CLOUDY    50  48  93 N6        29.79F                  
$$

MSZ040-058-172000-
CENTRAL MISSISSIPPI
  
CITY           SKY/WX    TMP DP  RH WIND       PRES   REMARKS
JACKSON INTL   RAIN      67  65  93 SW8       29.76F FOG              
JACKSON HAWKNS LGT RAIN  54  54 100 NW9G21    29.79R FOG              
MADISON        CLOUDY    52  52 100 NW10      29.78S                  
MERIDIAN KEY   CLOUDY    70  64  81 S14       29.78F                  
MERIDIAN NAS   CLOUDY    68  66  93 CALM      29.79F                  
RAYMOND        DRIZZLE   54  54 100 NW8G17    29.80R                  
VICKSBURG VKS  MOCLDY    50  50 100 NW6       29.84S                  
$$

MSZ059>079-172000-
SOUTH MISSISSIPPI
  
CITY           SKY/WX    TMP DP  RH WIND       PRES   REMARKS
HATTIESBURG    FAIR      79  62  56 S16G29    29.80F                  
LAUREL         MOCLDY    76  60  57 S14G21    29.79F                  
MCCOMB         PTSUNNY   79  62  56 S10G16    29.77F                  
NATCHEZ        LGT RAIN  52  51  97 N16       29.82R                  
PINE BELT      FAIR      78  64  61 S12G21    29.80F                  
$$

MSZ080>082-172000-
COASTAL MISSISSIPPI
  
CITY           SKY/WX    TMP DP  RH WIND       PRES   REMARKS
BILOXI         FAIR      72  69  89 S7        29.83F                  
PASCAGOULA     CLOUDY    78  70  76 S7G18     29.83F                  
GULFPORT       CLOUDY    71  67  87 S7        29.82F                  
$$

LAZ007>009-015>016-023>026-172000-
NORTHEAST LOUISIANA
  
CITY           SKY/WX    TMP DP  RH WIND       PRES   REMARKS
BASTROP        CLOUDY    45  45  99 N10       29.88F                  
TALLULAH/VBURG LGT RAIN  49  47  93 NW7       29.84S FOG              
VIDALIA        LGT RAIN  51  50  95 N10G20    29.83R                  
$$